Weather History for Paris / Charles De Gaulle, France

Change the Weather History Date:

Sunday, January 19, 2014

  Actual Average Record
Temperature  
Mean Temperature 44 °F -  
Max Temperature 48 °F 44 °F 57 °F (2007)
Min Temperature 41 °F 34 °F 28 °F (2013)
Degree Days  
Heating Degree Days 20    
Moisture  
Dew Point 41 °F    
Average Humidity 84    
Maximum Humidity 100    
Minimum Humidity 67    
Precipitation  
Precipitation 0.04 in - - ()
Sea Level Pressure  
Sea Level Pressure 29.44 in    
Wind  
Wind Speed 6 mph ()    
Max Wind Speed 10 mph    
Max Gust Speed -    
Visibility 6.9 miles    
Events Rain    
Averages and records for this station are not official NWS values.
T = Trace of Precipitation, MM = Missing Value Source: Averaged Metar Reports

Daily Weather History Graph

Daily Weather History Graph

Search for Another Location

Airport:

Trip Planner

Search our weather history database for the weather conditions in past years. The results will help you decide how hot, cold, wet, or windy it might be!

Date:

Astronomy

Jan. 19, 2014 Rise Set
Actual Time 8:35 AM CET 5:26 PM CET
Civil Twilight 7:59 AM CET 6:01 PM CET
Nautical Twilight 7:20 AM CET 6:40 PM CET
Astronomical Twilight 6:43 AM CET 7:18 PM CET
Moon 9:11 PM CET (1/19) 9:38 AM CET (1/19)
Length of Visible Light 10h 01m
Length of Day
8h 50m
Waning Gibbous, 91% of the Moon is Illuminated
Jan 19
Waning Gibbous
Jan 24
Last Quarter
Jan 30
New
Feb 6
First Quarter
Feb 15
Full

Hourly Weather History & Observations

Time (CET) Temp. Windchill Dew Point Humidity Pressure Visibility Wind Dir Wind Speed Gust Speed Precip Events Conditions
12:00 AM 45 °F - 40 °F 75% 29.33 in 16 mi ESE 10.4 mph - -   Mostly Cloudy
12:00 AM 46.4 °F 41.5 °F 39.2 °F 76% 29.30 in - ESE 10.4 mph - N/A   Clear
12:30 AM 44.6 °F 40.2 °F 39.2 °F 81% 29.30 in - ESE 8.1 mph - N/A   Clear
1:00 AM 45 °F - 40 °F 76% 29.32 in 16 mi ESE 9.2 mph - - Rain Light Rain
1:00 AM 44.6 °F 40.2 °F 39.2 °F 81% 29.30 in 6.2 mi ESE 8.1 mph - N/A Rain Light Rain
1:30 AM 46.4 °F 41.9 °F 41.0 °F 81% 29.30 in 6.2 mi SE 9.2 mph - N/A Rain Light Rain
2:00 AM 46 °F - 41 °F 77% 29.33 in 12 mi SSE 6.9 mph - - Rain Light Rain
2:00 AM 46.4 °F 42.9 °F 41.0 °F 81% 29.30 in 6.2 mi SSE 6.9 mph - N/A Rain Light Rain
2:30 AM 46.4 °F 43.5 °F 41.0 °F 81% 29.33 in 6.2 mi SSW 5.8 mph - N/A Rain Light Rain
3:00 AM 46 °F - 42 °F 81% 29.34 in 7 mi South 5.8 mph - - Rain Light Rain
3:00 AM 46.4 °F 43.5 °F 42.8 °F 87% 29.33 in 6.2 mi South 5.8 mph - N/A Rain Light Rain
3:30 AM 46.4 °F 44.3 °F 42.8 °F 87% 29.33 in 6.2 mi South 4.6 mph - N/A Rain Light Rain
4:00 AM 45 °F - 43 °F 88% 29.34 in 4 mi South 4.6 mph - - Rain Light Rain
4:00 AM 44.6 °F 42.2 °F 42.8 °F 93% 29.33 in 4.3 mi South 4.6 mph - N/A Rain Light Rain
4:30 AM 44.6 °F 41.4 °F 42.8 °F 93% 29.33 in 4.3 mi South 5.8 mph - N/A   Mostly Cloudy
5:00 AM 45 °F - 43 °F 89% 29.35 in 3 mi South 5.8 mph - - Rain Light Rain
5:00 AM 44.6 °F 41.4 °F 42.8 °F 93% 29.33 in 3.1 mi South 5.8 mph - N/A   Mostly Cloudy
5:30 AM 44.6 °F 41.4 °F 42.8 °F 93% 29.33 in 2.5 mi South 5.8 mph - N/A Rain Light Rain
6:00 AM 45 °F - 43 °F 90% 29.36 in 2 mi SSW 3.5 mph - - Rain Light Rain
6:00 AM 44.6 °F 43.1 °F 42.8 °F 93% 29.33 in 2.5 mi SSW 3.5 mph - N/A   Mostly Cloudy
6:30 AM 44.6 °F 43.1 °F 42.8 °F 93% 29.33 in 2.8 mi South 3.5 mph - N/A   Mostly Cloudy
7:00 AM 44 °F - 42 °F 91% 29.37 in 3 mi South 5.8 mph - -   Partly Cloudy
7:00 AM 44.6 °F 42.2 °F 42.8 °F 93% 29.36 in 3.1 mi South 4.6 mph - N/A   Mostly Cloudy
7:30 AM 44.6 °F 40.7 °F 42.8 °F 93% 29.36 in 3.1 mi South 6.9 mph - N/A   Mostly Cloudy
8:00 AM 44 °F - 43 °F 94% 29.40 in 3 mi South 6.9 mph - -   Mostly Cloudy
8:00 AM 44.6 °F 40.7 °F 42.8 °F 93% 29.39 in 3.1 mi South 6.9 mph - N/A   Mostly Cloudy
8:30 AM 44.6 °F 40.7 °F 42.8 °F 93% 29.39 in 4.3 mi South 6.9 mph - N/A   Mostly Cloudy
9:00 AM 44 °F - 43 °F 96% 29.43 in 3 mi South 6.9 mph - - Rain Light Drizzle
9:00 AM 44.6 °F 40.7 °F 42.8 °F 93% 29.42 in 3.1 mi South 6.9 mph - N/A   Light Drizzle
9:30 AM 44.6 °F 41.4 °F 42.8 °F 93% 29.42 in 3.7 mi South 5.8 mph - N/A   Mostly Cloudy
10:00 AM 44 °F - 43 °F 96% 29.46 in 3 mi South 9.2 mph - - Rain Light Drizzle
10:00 AM 44.6 °F 39.7 °F 42.8 °F 93% 29.44 in 2.8 mi South 9.2 mph - N/A   Mostly Cloudy
10:30 AM 44.6 °F 40.7 °F 42.8 °F 93% 29.44 in 2.8 mi South 6.9 mph - N/A   Mostly Cloudy
11:00 AM 45 °F - 44 °F 93% 29.47 in 3 mi SSW 6.9 mph - -   Mostly Cloudy
11:00 AM 44.6 °F 40.7 °F 44.6 °F 100% 29.44 in 3.1 mi SSW 6.9 mph - N/A   Scattered Clouds
11:30 AM 44.6 °F 40.2 °F 44.6 °F 100% 29.47 in 5.6 mi SSW 8.1 mph - N/A   Mostly Cloudy
12:00 PM 46 °F - 43 °F 87% 29.48 in 7 mi WSW 9.2 mph - -   Mostly Cloudy
12:00 PM 46.4 °F 41.9 °F 42.8 °F 87% 29.47 in 6.2 mi WSW 9.2 mph - N/A   Mostly Cloudy
12:30 PM 46.4 °F 43.5 °F 42.8 °F 87% 29.47 in 6.2 mi WSW 5.8 mph - N/A   Mostly Cloudy
1:00 PM 47 °F - 42 °F 77% 29.48 in 9 mi West 4.6 mph - -   Partly Cloudy
1:00 PM 46.4 °F 44.3 °F 42.8 °F 87% 29.44 in 6.2 mi West 4.6 mph - N/A   Mostly Cloudy
1:30 PM 46.4 °F 43.5 °F 42.8 °F 87% 29.47 in 6.2 mi West 5.8 mph - N/A   Mostly Cloudy
2:00 PM 47 °F - 42 °F 76% 29.49 in 16 mi West 4.6 mph - -   Mostly Cloudy
2:00 PM 48.2 °F - 42.8 °F 82% 29.47 in 6.2 mi West 4.6 mph - N/A   Mostly Cloudy
2:30 PM 48.2 °F - 42.8 °F 82% 29.47 in 6.2 mi West 5.8 mph - N/A   Mostly Cloudy
3:00 PM 47 °F - 40 °F 70% 29.50 in 16 mi West 3.5 mph - -   Mostly Cloudy
3:00 PM 48.2 °F - 41.0 °F 76% 29.47 in 6.2 mi West 3.5 mph - N/A   Mostly Cloudy
3:30 PM 48.2 °F - 41.0 °F 76% 29.47 in 6.2 mi West 4.6 mph - N/A   Mostly Cloudy
4:00 PM 47 °F - 39 °F 67% 29.52 in 16 mi WNW 4.6 mph - -   Mostly Cloudy
4:00 PM 46.4 °F 44.3 °F 39.2 °F 76% 29.50 in 6.2 mi WNW 4.6 mph - N/A   Scattered Clouds
4:30 PM 46.4 °F 44.3 °F 39.2 °F 76% 29.50 in 6.2 mi WNW 4.6 mph - N/A   Mostly Cloudy
5:00 PM 46 °F - 40 °F 71% 29.54 in 19 mi NW 4.6 mph - -   Mostly Cloudy
5:00 PM 46.4 °F 44.3 °F 39.2 °F 76% 29.50 in 6.2 mi NW 4.6 mph - N/A   Mostly Cloudy
5:30 PM 44.6 °F 42.2 °F 39.2 °F 81% 29.53 in 6.2 mi NW 4.6 mph - N/A   Mostly Cloudy
6:00 PM 45 °F - 39 °F 72% 29.55 in 19 mi NNW 4.6 mph - -   Mostly Cloudy
6:00 PM 44.6 °F 42.2 °F 39.2 °F 81% 29.53 in 6.2 mi NNW 4.6 mph - N/A   Mostly Cloudy
6:30 PM 44.6 °F 43.1 °F 39.2 °F 81% 29.53 in 6.2 mi NNW 3.5 mph - N/A   Mostly Cloudy
7:00 PM 44 °F - 39 °F 76% 29.56 in 19 mi NNW 2.3 mph - -   Mostly Cloudy
7:00 PM 44.6 °F - 39.2 °F 81% 29.53 in 6.2 mi NNW 2.3 mph - N/A   Mostly Cloudy
7:30 PM 42.8 °F - 37.4 °F 81% 29.53 in 6.2 mi North 1.2 mph - N/A   Mostly Cloudy
8:00 PM 43 °F - 38 °F 76% 29.57 in 12 mi NNW 3.5 mph - -   Partly Cloudy
8:00 PM 42.8 °F 41.1 °F 37.4 °F 81% 29.56 in 6.2 mi NNW 3.5 mph - N/A   Mostly Cloudy
8:30 PM 42.8 °F 41.1 °F 37.4 °F 81% 29.56 in 6.2 mi NNW 3.5 mph - N/A   Mostly Cloudy
9:00 PM 43 °F - 38 °F 75% 29.58 in 12 mi NNW 3.5 mph - -   Mostly Cloudy
9:00 PM 42.8 °F 41.1 °F 37.4 °F 81% 29.56 in - NNW 3.5 mph - N/A   Clear
9:30 PM 42.8 °F 39.3 °F 37.4 °F 81% 29.56 in - NNW 5.8 mph - N/A   Clear
10:00 PM 43 °F - 38 °F 76% 29.59 in 9 mi NNW 3.5 mph - -   Mostly Cloudy
10:00 PM 42.8 °F 41.1 °F 37.4 °F 81% 29.56 in - NNW 3.5 mph - N/A   Clear
10:30 PM 42.8 °F 40.1 °F 37.4 °F 81% 29.56 in - NNW 4.6 mph - N/A   Clear
11:00 PM 41 °F - 37 °F 80% 29.60 in 9 mi NW 4.6 mph - -   Scattered Clouds
11:00 PM 41.0 °F 38.0 °F 37.4 °F 87% 29.56 in 6.2 mi NW 4.6 mph - N/A   Mostly Cloudy
11:30 PM 41.0 °F 38.0 °F 37.4 °F 87% 29.59 in 6.2 mi NW 4.6 mph - N/A   Mostly Cloudy